Content
SEND FEEDBACK

Daily
Averages
Monthly
Summary
Greece

MITILINI, GREECE


Home > Europe > Greece
Elevation: 16 feet     Latitude: 39 04N     Longitude: 026 36E

WEATHER
 
SELECT A DAY
Number of Records: 92,982;   Date Range: 7/9/96 - 10/18/14
 
SHARE

PRINT THIS DATA

[ ← Previous Day ]
WEATHER ALMANAC - JANUARY 18, 2013
[ Next Day → ]
[ °C ]   °F
Weather ElementAverageHighLow
Temperature58.6 °F62.6 °F (12:20 pm)53.6 °F (7:50 pm)
Dewpoint50.2 °F55.4 °F (4:50 pm)46.4 °F (12:50 pm)
Humidity73.7 %94 % (9:50 pm)47 % (2:00 pm)
Barometer29.61 in29.78 in (2:00 am)29.50 in (4:50 pm)
Wind Speed23.7 mph36.8 mph (4:20 pm)
Wind Gust51.8 mph (1:20 pm)
Weather ElementAverage
Visibility5.8 mi
Wind DirectionSSE (156.5 °)

Weather ElementTotal
Precipitation---
Heating Degree Days6.9 (Base 65)
Growing Degree Days8.1 (Base 50)
Averaged from 46 records on January 18, 2013
WEATHER CONDITIONS BREAKOUT
WIND DIRECTION BREAKOUT
WEATHER BY HOUR - JANUARY 18, 2013
[ °C ]   °F
Local TimeTemperatureDewpointHumidityBarometerVisibilityWind DirectionWind SpeedGust SpeedPrecipitationEventsConditions
1:50 AM59.0 °F51.8 °F77 %29.77 in6.2 miSE (140°)16.1 mphMostly Cloudy
2:00 AM58.0 °F51.0 °F72 %29.78 in6.0 miSE (140°)16.1 mphMostly Cloudy
2:50 AM59.0 °F51.8 °F77 %29.74 in6.2 miSSE (150°)19.6 mphRainLight Rain
3:50 AM57.2 °F50.0 °F77 %29.74 in6.2 miSSE (150°)21.9 mph36.8 mphRainLight Rain
4:20 AM57.2 °F50.0 °F77 %29.71 in6.2 miSSE (150°)23.0 mph34.5 mphMostly Cloudy
4:50 AM57.2 °F51.8 °F82 %29.71 in5.0 miSSE (150°)19.6 mphRainRain
5:20 AM57.2 °F53.6 °F88 %29.68 in5.0 miSSE (150°)21.9 mphRainRain
5:50 AM57.2 °F50.0 °F77 %29.68 in6.2 miSSE (150°)25.3 mph36.8 mphRainLight Rain
6:20 AM57.2 °F50.0 °F77 %29.68 in6.2 miSSE (150°)25.3 mph36.8 mphRainLight Rain
6:50 AM57.2 °F51.8 °F82 %29.68 in6.2 miSSE (150°)26.5 mph41.4 mphRainLight Rain
7:20 AM57.2 °F51.8 °F82 %29.68 in6.2 miSSE (150°)25.3 mph40.3 mphRainLight Rain
7:50 AM59.0 °F51.8 °F77 %29.65 in6.2 miSSE (150°)25.3 mph38.0 mphRainLight Rain
8:00 AM59.0 °F52.0 °F72 %29.67 in6.0 miSSE (150°)25.3 mphRainLight Rain
8:20 AM59.0 °F51.8 °F77 %29.65 in6.2 miSSE (150°)26.5 mph42.6 mphOvercast
8:50 AM59.0 °F51.8 °F77 %29.65 in6.2 miSSE (150°)25.3 mph40.3 mphOvercast
9:20 AM60.8 °F51.8 °F72 %29.65 in6.2 miSSE (150°)27.6 mph42.6 mphOvercast
9:50 AM60.8 °F50.0 °F68 %29.65 in6.2 miSSE (150°)27.6 mph42.6 mphOvercast
10:20 AM60.8 °F50.0 °F68 %29.65 in6.2 miSSE (150°)27.6 mph41.4 mphOvercast
10:50 AM60.8 °F50.0 °F68 %29.65 in6.2 miSSE (150°)31.1 mph47.2 mphOvercast
11:20 AM60.8 °F50.0 °F68 %29.65 in6.2 miSSE (150°)29.9 mph44.9 mphOvercast
11:50 AM60.8 °F50.0 °F68 %29.65 in6.2 miSSE (150°)31.1 mph47.2 mphOvercast
12:20 PM62.6 °F48.2 °F59 %29.62 in6.2 miSSE (150°)32.2 mph49.5 mphOvercast
12:50 PM62.6 °F46.4 °F55 %29.59 in6.2 miSSE (150°)33.4 mph50.6 mphOvercast
1:20 PM62.6 °F46.4 °F55 %29.56 in6.2 miSSE (150°)34.5 mph51.8 mphOvercast
1:50 PM62.6 °F46.4 °F55 %29.56 in6.2 miSSE (150°)34.5 mph51.8 mphOvercast
2:00 PM62.0 °F47.0 °F47 %29.57 in6.0 miSSE (150°)34.5 mphOvercast
2:20 PM62.6 °F46.4 °F55 %29.53 in6.2 miSSE (150°)32.2 mph47.2 mphOvercast
2:50 PM62.6 °F48.2 °F59 %29.53 in6.2 miSSE (150°)32.2 mph46.0 mphOvercast
3:20 PM62.6 °F48.2 °F59 %29.53 in6.2 miSSE (150°)32.2 mph43.7 mphOvercast
3:50 PM62.6 °F50.0 °F63 %29.53 in6.2 miSSE (150°)29.9 mph47.2 mphOvercast
4:20 PM62.6 °F50.0 °F63 %29.53 in6.2 miSSE (150°)36.8 mph50.6 mphOvercast
4:50 PM62.6 °F55.4 °F77 %29.50 in2.5 miSouth (190°)26.5 mph44.9 mphRain-ThunderstormHeavy Thunderstorms and Rain
5:20 PM62.6 °F55.4 °F77 %29.50 in1.9 miSW (230°)19.6 mph31.1 mphRain-ThunderstormHeavy Thunderstorms and Rain
5:50 PM57.2 °F53.6 °F88 %29.53 in4.3 miSouth (170°)11.5 mph27.6 mphRainLight Rain
6:20 PM57.2 °F53.6 °F88 %29.56 in5.6 miSSE (150°)18.4 mph29.9 mphRainLight Rain
6:50 PM57.2 °F51.8 °F82 %29.53 in5.6 miSSE (160°)15.0 mph26.5 mphRainLight Rain
7:20 PM57.2 °F51.8 °F82 %29.53 in4.3 miSW (220°)11.5 mph23.0 mphRainRain
7:50 PM53.6 °F48.2 °F82 %29.53 in5.6 miSouth (180°)8.1 mphRainLight Rain
8:00 PM54.0 °F48.0 °F73 %29.55 in6.0 miSouth (180°)8.1 mphRainLight Rain
8:20 PM53.6 °F48.2 °F82 %29.53 in6.2 miSSE (150°)12.7 mph24.2 mphOvercast
8:50 PM53.6 °F46.4 °F77 %29.53 in6.2 miSSE (150°)21.9 mphOvercast
9:20 PM53.6 °F46.4 °F77 %29.53 in6.2 miSSE (150°)15.0 mph26.5 mphOvercast
9:50 PM53.6 °F51.8 °F94 %29.53 in5.6 miSSE (150°)23.0 mphRainLight Rain
10:20 PM53.6 °F51.8 °F94 %29.53 in6.2 miSouth (180°)18.4 mphOvercast
10:50 PM53.6 °F48.2 °F82 %29.53 in6.2 miSSE (150°)16.1 mph29.9 mphMostly Cloudy
11:50 PM53.6 °F48.2 °F82 %29.53 in6.2 miSSE (160°)16.1 mph36.8 mphMostly Cloudy
Hourly data recorded from LGMT, located miles away from Mitilini, Greece







STORIES FROM OUR PARTNERS